Creek Data

    Home     View Charts     View Raw Data     Messages

ID Distance Battery Voltage Battery Current Internal Temp Internal Humidity External Temp Solar Input rssi snr Time Stamp Record
63850 14.5 3.87 -5 45 50 44 0.1 -76 7 01/19/2026 06:45 PM 46597
63849 14.5 3.87 -5 45 50 45 0 -76 8 01/19/2026 06:30 PM 46596
63848 14.5 3.78 -5 45 50 45 0 -76 8 01/19/2026 06:15 PM 46595
63847 14.5 3.80 -5 45 50 45 0.1 -76 8 01/19/2026 06:00 PM 46594
63846 14.5 3.67 -5 45 50 45 0 -76 8 01/19/2026 05:45 PM 46593
63845 14.5 3.69 -5 45 50 45 0.2 -76 8 01/19/2026 05:30 PM 46592
63844 14.5 3.69 -5 45 50 45 1.1 -77 8 01/19/2026 05:15 PM 46591
63843 14.5 3.67 -10 46 50 45 4.2 -77 8 01/19/2026 05:00 PM 46590
63842 14.5 3.70 0 46 50 45 4.5 -77 8 01/19/2026 04:45 PM 46589
63841 14.5 3.73 5 47 50 46 4.5 -77 8 01/19/2026 04:30 PM 46588
63840 14.5 4.01 0 47 50 46 4.5 -77 7 01/19/2026 04:15 PM 46587
63839 14.5 4.03 7 47 50 46 4.6 -77 8 01/19/2026 04:00 PM 46586
63838 14.5 3.83 15 48 50 46 4.5 -77 7 01/19/2026 03:45 PM 46585
63837 14.5 3.83 -6 48 50 46 4.5 -77 8 01/19/2026 03:30 PM 46584
63836 14.5 3.84 0 49 49 47 5.1 -77 7 01/19/2026 03:00 PM 46582
63835 14.5 3.84 0 50 49 47 5.1 -76 7 01/19/2026 02:45 PM 46581
63834 14.5 4.05 0 50 49 47 5.1 -76 8 01/19/2026 02:30 PM 46580
63833 14.5 3.84 0 50 49 47 5.1 -77 7 01/19/2026 02:15 PM 46579
63832 14.5 3.84 0 50 48 47 5.1 -76 8 01/19/2026 02:00 PM 46578
63831 14.5 3.84 0 50 48 46 5.1 -75 8 01/19/2026 01:00 PM 46574
63830 14.5 3.84 0 49 48 46 5.1 -76 7 01/19/2026 12:30 PM 46572
63829 14.5 3.84 0 49 48 46 5.1 -75 8 01/19/2026 12:15 PM 46571
63828 14.5 3.97 0 48 47 46 5.1 -76 7 01/19/2026 12:00 PM 46570
63827 14.5 3.84 0 47 48 45 5.1 -76 7 01/19/2026 11:45 AM 46569
63826 14.5 3.84 0 46 48 44 5.1 -76 8 01/19/2026 11:15 AM 46567